Date String (YYYY-MM-DD hh:mm:ss) UTC,Instrument flags,absolute air pressure of the measurement (hPa),sample flow rate (lpm),inlet stack bypass flow (lpm),air temperature of the measurement (°C),ambient temperature measured by the external sensor (°C),aerosol sample conditioner tube jacket temperature (°C),OPC LED temperature (°C),internal box temperature (°C),relative humidity of the measurement (%),span deviation,mass concentration of particles derived from Lorenz-Mie calculation of OPC scattering (μg/m³),mass concentration of particles derived from Lorenz-Mie calculation of OPC scattering (μg/m³),mass concentration of particles derived from Lorenz-Mie calculation of OPC scattering (μg/m³)
DateTimeUTC,F1_M11,P_M11,Q1_M11,Q2_M11,T1_M11,T2_M11,T3_M11,T4_M11,T5_M11,U1_M11,ZSPAN_M11,X2_M11,X0_M11,X1_M11
2023-10-24 22:00:00,SystemResetWarning,0825.3,5.00,000.00,028.6,025.3,000.0,037.0,030.1,19.9,0000.0,0007.07,0024.51,0004.72
2023-10-24 22:01:00,SystemResetWarning,0825.3,5.00,000.00,028.6,025.7,000.0,037.0,030.1,20.0,0000.0,0007.15,0026.89,0004.74
2023-10-24 22:02:00,SystemResetWarning,0825.3,5.00,000.00,028.6,026.0,000.0,037.0,030.1,20.0,0000.0,0007.29,0030.20,0004.77
2023-10-24 22:03:00,SystemResetWarning,0825.3,5.00,000.00,028.6,026.4,000.0,037.0,030.2,20.0,0000.0,0007.30,0030.66,0004.82
2023-10-24 22:04:00,SystemResetWarning,0825.3,5.00,000.00,028.6,026.6,000.0,037.0,030.2,20.0,0000.0,0007.35,0030.56,0004.86
2023-10-24 22:05:00,SystemResetWarning,0825.3,5.00,000.00,028.6,026.9,000.0,037.0,030.3,20.1,0000.0,0007.40,0029.98,0004.87
2023-10-24 22:06:00,SystemResetWarning,0825.3,5.00,000.00,028.6,027.0,000.0,037.0,030.3,20.2,0000.0,0007.51,0029.80,0004.88
2023-10-24 22:07:00,SystemResetWarning,0825.2,4.99,000.00,028.7,027.2,000.0,037.1,030.4,20.1,0001.0,0007.52,0030.10,0004.89
2023-10-24 22:08:00,SystemResetWarning,0825.2,4.99,000.00,028.7,027.4,000.0,037.1,030.4,20.2,0003.3,0007.56,0029.32,0004.90
2023-10-24 22:09:00,SystemResetWarning,0825.3,5.00,000.00,028.7,027.5,000.0,037.1,030.5,20.2,0002.8,0007.56,0028.70,0004.90
2023-10-24 22:10:00,SystemResetWarning,0825.2,5.01,000.00,028.7,027.6,000.0,037.1,030.5,20.1,0002.3,0007.58,0029.47,0004.92
2023-10-24 22:11:00,SystemResetWarning,0825.3,5.01,000.00,028.8,027.7,000.0,037.1,030.6,20.2,0001.5,0007.61,0030.07,0004.93
2023-10-24 22:12:00,SystemResetWarning,0825.3,4.99,000.00,028.8,027.0,000.0,037.1,030.6,20.1,0001.2,0007.60,0028.75,0004.91
2023-10-24 22:13:00,SystemResetWarning,0825.2,5.00,000.00,028.8,025.3,000.0,037.0,030.4,20.1,0001.9,0007.51,0026.41,0004.90
2023-10-24 22:14:00,SystemResetWarning,0825.2,5.01,000.00,028.7,024.9,000.0,037.0,030.3,20.3,0001.0,0007.52,0026.27,0004.87
2023-10-24 22:15:00,SystemResetWarning,0825.2,4.99,000.00,028.6,025.1,000.0,037.0,030.1,20.3,0000.6,0007.64,0028.43,0004.85
2023-10-24 22:16:00,SystemResetWarning,0825.2,5.00,000.00,028.5,025.4,000.0,037.0,030.0,20.3,0000.0,0007.65,0027.54,0004.86
2023-10-24 22:17:00,SystemResetWarning,0825.3,4.99,000.00,028.5,025.8,000.0,037.0,030.1,20.2,0000.0,0007.63,0027.93,0004.85
2023-10-24 22:18:00,SystemResetWarning,0825.3,5.01,000.00,028.5,026.1,000.0,037.0,030.1,20.2,0000.0,0007.60,0027.89,0004.84
2023-10-24 22:19:00,SystemResetWarning,0825.2,5.00,000.00,028.5,026.4,000.0,037.0,030.2,20.2,0000.0,0007.60,0029.31,0004.84
2023-10-24 22:20:00,SystemResetWarning,0825.2,5.00,000.00,028.5,026.7,000.0,037.0,030.2,20.2,0000.0,0007.57,0030.90,0004.82
2023-10-24 22:21:00,SystemResetWarning,0825.2,5.00,000.00,028.6,026.9,000.0,037.0,030.2,20.2,0000.0,0007.46,0030.52,0004.77
2023-10-24 22:22:00,SystemResetWarning,0825.2,5.01,000.00,028.6,027.1,000.0,037.0,030.3,20.2,0000.0,0007.35,0029.61,0004.71
2023-10-24 22:23:00,SystemResetWarning,0825.2,4.99,000.00,028.6,027.2,000.0,037.0,030.4,20.2,0000.0,0007.32,0029.23,0004.67
2023-10-24 22:24:00,SystemResetWarning,0825.3,5.00,000.00,028.7,027.4,000.0,037.0,030.4,20.2,0000.0,0007.29,0030.03,0004.65
2023-10-24 22:25:00,SystemResetWarning,0825.3,5.00,000.00,028.7,027.5,000.0,037.0,030.5,20.1,0000.0,0007.27,0031.50,0004.63
2023-10-24 22:26:00,SystemResetWarning,0825.3,5.00,000.00,028.7,027.6,000.0,037.1,030.5,20.0,0000.0,0007.23,0029.67,0004.60
2023-10-24 22:27:00,SystemResetWarning,0825.4,5.00,000.00,028.8,027.7,000.0,037.1,030.5,20.0,0000.0,0007.17,0029.82,0004.58
2023-10-24 22:28:00,SystemResetWarning,0825.4,4.99,000.00,028.8,027.1,000.0,037.1,030.6,19.9,0000.0,0007.13,0029.75,0004.57
2023-10-24 22:29:00,SystemResetWarning,0825.3,5.00,000.00,028.7,025.1,000.0,037.0,030.3,20.0,0000.0,0007.17,0030.93,0004.56
2023-10-24 22:30:00,SystemResetWarning,0825.3,5.00,000.00,028.6,023.9,000.0,037.0,030.1,20.1,0000.0,0007.09,0030.62,0004.54
2023-10-24 22:31:00,SystemResetWarning,0825.3,5.02,000.00,028.5,024.0,000.0,036.9,029.9,20.3,0000.0,0007.13,0031.12,0004.52
2023-10-24 22:32:00,SystemResetWarning,0825.2,5.00,000.00,028.4,024.4,000.0,036.9,029.8,20.4,0000.0,0007.26,0031.67,0004.51
2023-10-24 22:33:00,SystemResetWarning,0825.2,4.99,000.00,028.4,024.9,000.0,036.9,029.8,20.5,0000.0,0007.35,0032.38,0004.52
2023-10-24 22:34:00,SystemResetWarning,0825.2,5.00,000.00,028.3,025.3,000.0,036.9,029.9,20.5,0000.0,0007.34,0032.54,0004.52
2023-10-24 22:35:00,SystemResetWarning,0825.2,5.00,000.00,028.3,025.7,000.0,036.9,029.9,20.5,0000.0,0007.26,0031.34,0004.51
2023-10-24 22:36:00,SystemResetWarning,0825.2,5.00,000.00,028.3,026.1,000.0,036.9,030.0,20.5,0000.0,0007.28,0030.34,0004.51
2023-10-24 22:37:00,SystemResetWarning,0825.2,5.00,000.00,028.4,026.4,000.0,036.9,030.0,20.4,0000.0,0007.25,0030.93,0004.51
2023-10-24 22:38:00,SystemResetWarning,0825.2,5.01,000.00,028.4,026.7,000.0,036.9,030.1,20.3,0000.0,0007.22,0030.97,0004.49
2023-10-24 22:39:00,SystemResetWarning,0825.2,4.99,000.00,028.4,026.9,000.0,036.9,030.1,20.3,0000.0,0007.15,0030.67,0004.47
2023-10-24 22:40:00,SystemResetWarning,0825.2,4.99,000.00,028.4,027.0,000.0,036.9,030.2,20.3,0000.0,0007.09,0029.99,0004.47
2023-10-24 22:41:00,SystemResetWarning,0825.2,5.01,000.00,028.5,027.2,000.0,036.9,030.2,20.2,0000.0,0007.18,0029.15,0004.47
2023-10-24 22:42:00,SystemResetWarning,0825.3,5.01,000.00,028.5,027.3,000.0,036.9,030.3,20.1,0000.0,0007.13,0029.88,0004.45
2023-10-24 22:43:00,SystemResetWarning,0825.3,4.99,000.00,028.6,027.4,000.0,036.9,030.3,20.1,0000.0,0007.07,0029.74,0004.46
2023-10-24 22:44:00,SystemResetWarning,0825.2,4.99,000.00,028.6,027.5,000.0,036.9,030.4,20.0,0000.0,0007.10,0029.72,0004.47
2023-10-24 22:45:00,SystemResetWarning,0825.3,5.00,000.00,028.6,027.6,000.0,037.0,030.4,20.0,0000.0,0007.11,0029.82,0004.47
2023-10-24 22:46:00,SystemResetWarning,0825.2,4.99,000.00,028.7,027.7,000.0,037.0,030.5,19.9,-000.0,0007.21,0030.13,0004.47
2023-10-24 22:47:00,SystemResetWarning,0825.2,4.99,000.00,028.7,027.8,000.0,037.0,030.5,19.8,-000.0,0007.26,0030.48,0004.47
2023-10-24 22:48:00,SystemResetWarning,0825.2,5.00,000.00,028.8,027.8,000.0,037.0,030.6,19.7,-000.2,0007.27,0032.47,0004.47
2023-10-24 22:49:00,SystemResetWarning,0825.3,5.00,000.00,028.8,027.6,000.0,037.1,030.6,19.7,-000.3,0007.31,0032.58,0004.49
2023-10-24 22:50:00,SystemResetWarning,0825.2,5.00,000.00,028.8,025.8,000.0,037.0,030.5,19.6,0000.8,0007.33,0034.55,0004.49
2023-10-24 22:51:00,SystemResetWarning,0825.2,5.00,000.00,028.7,024.1,000.0,037.0,030.1,19.7,0002.0,0007.40,0035.05,0004.52
2023-10-24 22:52:00,SystemResetWarning,0825.2,5.01,000.00,028.6,023.9,000.0,036.9,030.0,19.8,0001.5,0007.32,0035.34,0004.54
2023-10-24 22:53:00,SystemResetWarning,0825.2,5.02,000.00,028.4,024.3,000.0,036.9,029.8,20.0,0000.2,0007.36,0034.04,0004.57
2023-10-24 22:54:00,SystemResetWarning,0825.2,5.00,000.00,028.4,024.7,000.0,036.9,029.8,20.1,0000.0,0007.47,0033.30,0004.61
2023-10-24 22:55:00,SystemResetWarning,0825.2,5.00,000.00,028.3,025.2,000.0,036.9,029.8,20.1,0000.0,0007.50,0033.94,0004.64
2023-10-24 22:56:00,SystemResetWarning,0825.2,5.00,000.00,028.3,025.6,000.0,036.9,029.9,20.2,0000.0,0007.48,0033.62,0004.68
2023-10-24 22:57:00,SystemResetWarning,0825.2,5.00,000.00,028.3,026.0,000.0,036.9,029.9,20.1,0000.0,0007.45,0033.72,0004.70
2023-10-24 22:58:00,SystemResetWarning,0825.2,5.00,000.00,028.3,026.3,000.0,036.9,030.0,20.1,0000.0,0007.40,0032.43,0004.72
2023-10-24 22:59:00,SystemResetWarning,0825.3,5.00,000.00,028.4,026.5,000.0,036.9,030.1,20.1,0000.0,0007.38,0028.99,0004.75
